Station Historical Data
Daily Summary for January 14, 2012 Units:  Metric    English   Both
« Previous Day
Next Day »
Daily Weekly Monthly Yearly Custom
  High: Low: Average:
Temperature: 12.7 °C -4.4 °C 3.3 °C
Dew Point: -1.1 °C -7.7 °C -4.5 °C
Humidity: 82% 29% 59%
Wind Speed: 33.8km/h 0km/h 9.5km/h
Wind Gust: 45.1km/h - -
Wind- - SW
Pressure: 1025.3 hPa 1017.5 hPa -
Precipitation: 0 mm    
Historical Graphs
 
 
Tabular Data for January 14, 2012
Time Temperature Dew Point Pressure Wind Wind Speed Wind Gust Humidity Rainfall Rate (Hourly) Conditions
00:00 -2.6 °C -7.3 °C 1023.9 hPa SW 3.2 km/h 6.4 km/h 70% 0 mm
00:01 -2.6 °C -7.3 °C 1023.9 hPa SW 3.2 km/h 6.4 km/h 70% 0 mm
00:02 -2.6 °C -7.3 °C 1023.9 hPa SW 3.2 km/h 6.4 km/h 70% 0 mm
00:07 -2.7 °C -7.4 °C 1024.3 hPa SSW 4.8 km/h 4.8 km/h 70% 0 mm
00:12 -2.8 °C -7.3 °C 1024.3 hPa SW 1.6 km/h 6.4 km/h 71% 0 mm
00:17 -2.9 °C -7.4 °C 1023.9 hPa SW 3.2 km/h 3.2 km/h 71% 0 mm
00:22 -2.8 °C -7.3 °C 1023.9 hPa SW 3.2 km/h 4.8 km/h 71% 0 mm
00:27 -2.8 °C -7.3 °C 1023.9 hPa SW 1.6 km/h 3.2 km/h 71% 0 mm
00:32 -2.8 °C -7.2 °C 1023.9 hPa SW 1.6 km/h 3.2 km/h 72% 0 mm
00:37 -2.9 °C -7.3 °C 1023.9 hPa SSE 1.6 km/h 1.6 km/h 72% 0 mm
00:42 -3 °C -7.3 °C 1023.6 hPa SSW 3.2 km/h 3.2 km/h 72% 0 mm
00:47 -3 °C -7.3 °C 1023.6 hPa SSW 1.6 km/h 3.2 km/h 72% 0 mm
00:52 -3.1 °C -7.4 °C 1023.6 hPa SSW 1.6 km/h 6.4 km/h 72% 0 mm
00:57 -3.1 °C -7.3 °C 1023.9 hPa SW 4.8 km/h 6.4 km/h 73% 0 mm
01:02 -3.1 °C -7.3 °C 1023.9 hPa WSW 4.8 km/h 8 km/h 73% 0 mm
01:07 -3 °C -7.2 °C 1023.9 hPa SW 6.4 km/h 6.4 km/h 73% 0 mm
01:12 -2.9 °C -7.1 °C 1024.3 hPa WSW 3.2 km/h 6.4 km/h 73% 0 mm
01:17 -2.9 °C -7.1 °C 1023.9 hPa WSW 3.2 km/h 6.4 km/h 73% 0 mm
01:22 -2.9 °C -6.9 °C 1023.9 hPa West 3.2 km/h 6.4 km/h 74% 0 mm
01:27 -2.9 °C -6.9 °C 1023.9 hPa West 3.2 km/h 4.8 km/h 74% 0 mm
01:32 -2.9 °C -6.9 °C 1023.9 hPa WSW 3.2 km/h 4.8 km/h 74% 0 mm
01:37 -2.8 °C -6.9 °C 1023.9 hPa WSW 4.8 km/h 8 km/h 73% 0 mm
01:43 -2.7 °C -6.9 °C 1023.9 hPa West 4.8 km/h 6.4 km/h 73% 0 mm
01:48 -2.8 °C -6.9 °C 1023.9 hPa WSW 3.2 km/h 4.8 km/h 73% 0 mm
01:53 -2.8 °C -7 °C 1023.9 hPa WSW 3.2 km/h 3.2 km/h 73% 0 mm
01:58 -2.8 °C -7 °C 1023.9 hPa SW 1.6 km/h 3.2 km/h 73% 0 mm
02:03 -2.9 °C -7.1 °C 1023.9 hPa WSW 1.6 km/h 3.2 km/h 73% 0 mm
02:08 -2.9 °C -6.9 °C 1023.9 hPa WSW 1.6 km/h 3.2 km/h 74% 0 mm
02:13 -2.9 °C -6.9 °C 1023.9 hPa WSW 3.2 km/h 3.2 km/h 74% 0 mm
02:18 -3 °C -7 °C 1024.3 hPa SW 1.6 km/h 3.2 km/h 74% 0 mm
02:23 -3.2 °C -7.3 °C 1024.3 hPa SSW 3.2 km/h 3.2 km/h 73% 0 mm
02:28 -3.2 °C -7.4 °C 1024.3 hPa SW 3.2 km/h 3.2 km/h 73% 0 mm
02:33 -3.3 °C -7.3 °C 1024.3 hPa SSW 1.6 km/h 3.2 km/h 74% 0 mm
02:38 -3.3 °C -7.3 °C 1024.6 hPa SSW 1.6 km/h 3.2 km/h 74% 0 mm
02:43 -3.4 °C -7.3 °C 1024.3 hPa SW 1.6 km/h 3.2 km/h 74% 0 mm
02:48 -3.3 °C -7.3 °C 1024.6 hPa SW 1.6 km/h 3.2 km/h 74% 0 mm
02:53 -3.4 °C -7.3 °C 1024.6 hPa SSW 1.6 km/h 3.2 km/h 74% 0 mm
02:58 -3.4 °C -7.4 °C 1024.6 hPa SSW 1.6 km/h 1.6 km/h 74% 0 mm
03:03 -3.4 °C -7.4 °C 1024.6 hPa SSW 1.6 km/h 1.6 km/h 74% 0 mm
03:08 -3.6 °C -7.5 °C 1024.3 hPa SSW 1.6 km/h 1.6 km/h 74% 0 mm
03:13 -3.6 °C -7.3 °C 1024.6 hPa SSW 1.6 km/h 1.6 km/h 75% 0 mm
03:18 -3.6 °C -7.4 °C 1024.3 hPa Calm   1.6 km/h 75% 0 mm
03:23 -3.6 °C -7.4 °C 1024.6 hPa SSW 1.6 km/h 1.6 km/h 75% 0 mm
03:28 -3.7 °C -7.5 °C 1024.6 hPa SSW 1.6 km/h 1.6 km/h 75% 0 mm
03:33 -3.7 °C -7.5 °C 1024.6 hPa SSW 1.6 km/h 1.6 km/h 75% 0 mm
03:39 -3.8 °C -7.6 °C 1024.6 hPa Calm   1.6 km/h 75% 0 mm
03:44 -3.8 °C -7.6 °C 1024.6 hPa SSW 1.6 km/h 1.6 km/h 75% 0 mm
03:49 -3.8 °C -7.6 °C 1024.6 hPa SSW 1.6 km/h 1.6 km/h 75% 0 mm
03:54 -3.8 °C -7.6 °C 1024.6 hPa Calm   1.6 km/h 75% 0 mm
03:59 -3.8 °C -7.6 °C 1024.6 hPa SSW 1.6 km/h 1.6 km/h 75% 0 mm
04:04 -3.8 °C -7.6 °C 1024.6 hPa SSW 1.6 km/h 3.2 km/h 75% 0 mm
04:09 -3.8 °C -7.6 °C 1024.6 hPa Calm   1.6 km/h 75% 0 mm
04:14 -3.8 °C -7.6 °C 1024.6 hPa SSE 1.6 km/h 1.6 km/h 75% 0 mm
04:19 -3.8 °C -7.6 °C 1024.6 hPa SSE 1.6 km/h 1.6 km/h 75% 0 mm
04:24 -3.7 °C -7.4 °C 1024.6 hPa SE 1.6 km/h 1.6 km/h 75% 0 mm
04:29 -3.5 °C -7.4 °C 1024.3 hPa SE 1.6 km/h 1.6 km/h 74% 0 mm
04:34 -3.5 °C -7.6 °C 1024.6 hPa SE 1.6 km/h 1.6 km/h 73% 0 mm
04:39 -3.5 °C -7.4 °C 1024.6 hPa SSW 1.6 km/h 1.6 km/h 74% 0 mm
04:44 -3.7 °C -7.7 °C 1024.6 hPa Calm   1.6 km/h 74% 0 mm
04:49 -4 °C -7.6 °C 1024.6 hPa SSW 1.6 km/h 3.2 km/h 76% 0 mm
04:54 -4.2 °C -7.5 °C 1024.3 hPa South 3.2 km/h 3.2 km/h 78% 0 mm
04:59 -4.2 °C -7.5 °C 1024.6 hPa SSE 3.2 km/h 3.2 km/h 78% 0 mm
05:04 -4.1 °C -7.7 °C 1024.6 hPa SSE 3.2 km/h 4.8 km/h 76% 0 mm
05:09 -3.8 °C -7.4 °C 1024.3 hPa SSE 3.2 km/h 4.8 km/h 76% 0 mm
05:14 -3.8 °C -7.6 °C 1024.6 hPa SSE 1.6 km/h 3.2 km/h 75% 0 mm
05:19 -3.8 °C -7.6 °C 1024.6 hPa SSE 3.2 km/h 3.2 km/h 75% 0 mm
05:24 -3.8 °C -7.6 °C 1024.6 hPa SSE 3.2 km/h 3.2 km/h 75% 0 mm
05:29 -3.9 °C -7.5 °C 1024.6 hPa SSE 3.2 km/h 3.2 km/h 76% 0 mm
05:34 -3.9 °C -7.6 °C 1024.6 hPa SSE 3.2 km/h 3.2 km/h 76% 0 mm
05:39 -3.9 °C -7.5 °C 1024.6 hPa SSE 3.2 km/h 3.2 km/h 76% 0 mm
05:44 -3.9 °C -7.5 °C 1024.3 hPa SE 3.2 km/h 3.2 km/h 76% 0 mm
05:49 -3.9 °C -7.6 °C 1024.6 hPa SE 1.6 km/h 3.2 km/h 76% 0 mm
05:54 -4 °C -7.4 °C 1024.3 hPa SE 4.8 km/h 4.8 km/h 77% 0 mm
05:59 -4 °C -7.4 °C 1024.6 hPa ESE 3.2 km/h 3.2 km/h 77% 0 mm
06:04 -3.9 °C -7.4 °C 1024.6 hPa ESE 1.6 km/h 3.2 km/h 77% 0 mm
06:09 -4.1 °C -7.5 °C 1024.6 hPa ESE 1.6 km/h 1.6 km/h 77% 0 mm
06:15 -4.1 °C -7.6 °C 1024.6 hPa ESE 1.6 km/h 1.6 km/h 77% 0 mm
06:20 -4.1 °C -7.6 °C 1024.6 hPa SE 1.6 km/h 3.2 km/h 77% 0 mm
06:25 -4.3 °C -7.6 °C 1024.6 hPa SE 4.8 km/h 4.8 km/h 78% 0 mm
06:30 -4.2 °C -7.5 °C 1024.3 hPa SE 6.4 km/h 6.4 km/h 78% 0 mm
06:35 -4.2 °C -7.5 °C 1024.6 hPa South 1.6 km/h 6.4 km/h 78% 0 mm
06:40 -4.2 °C -7.5 °C 1024.9 hPa SSE 4.8 km/h 4.8 km/h 78% 0 mm
06:45 -4.3 °C -7.6 °C 1024.9 hPa SSE 3.2 km/h 3.2 km/h 78% 0 mm
06:50 -4.4 °C -7.5 °C 1024.9 hPa SE 3.2 km/h 3.2 km/h 79% 0 mm
06:55 -4.4 °C -7.5 °C 1024.6 hPa SE 4.8 km/h 6.4 km/h 79% 0 mm
07:00 -4.3 °C -7.4 °C 1024.6 hPa SE 4.8 km/h 4.8 km/h 79% 0 mm
07:05 -4.3 °C -7.4 °C 1024.6 hPa SE 6.4 km/h 8 km/h 79% 0 mm
07:10 -4.3 °C -7.4 °C 1024.6 hPa SSE 3.2 km/h 4.8 km/h 79% 0 mm
07:15 -4.3 °C -7.4 °C 1024.6 hPa SE 1.6 km/h 4.8 km/h 79% 0 mm
07:20 -4.3 °C -7.4 °C 1024.6 hPa SE 1.6 km/h 3.2 km/h 79% 0 mm
07:25 -4.2 °C -7.3 °C 1024.6 hPa SE 3.2 km/h 6.4 km/h 79% 0 mm
07:30 -4.3 °C -7.3 °C 1024.6 hPa SE 1.6 km/h 4.8 km/h 80% 0 mm
07:35 -4.4 °C -7.2 °C 1024.6 hPa SE 3.2 km/h 4.8 km/h 81% 0 mm
07:40 -4.3 °C -7.1 °C 1024.6 hPa SE 4.8 km/h 4.8 km/h 81% 0 mm
07:45 -4.2 °C -6.9 °C 1024.6 hPa SE 4.8 km/h 6.4 km/h 81% 0 mm
07:50 -4.1 °C -6.8 °C 1024.6 hPa SE 4.8 km/h 4.8 km/h 81% 0 mm
07:55 -4.1 °C -6.8 °C 1024.6 hPa ESE 3.2 km/h 4.8 km/h 81% 0 mm
08:00 -4.2 °C -6.9 °C 1024.6 hPa SE 3.2 km/h 4.8 km/h 81% 0 mm
08:06 -4.1 °C -6.7 °C 1024.6 hPa ESE 4.8 km/h 4.8 km/h 82% 0 mm
08:11 -3.9 °C -6.6 °C 1024.6 hPa SE 4.8 km/h 6.4 km/h 82% 0 mm
08:16 -3.7 °C -6.5 °C 1024.6 hPa SE 4.8 km/h 8 km/h 81% 0 mm
08:21 -3.5 °C -6.3 °C 1024.3 hPa ESE 4.8 km/h 9.7 km/h 81% 0 mm
08:26 -3.3 °C -6.1 °C 1024.3 hPa SE 6.4 km/h 11.3 km/h 81% 0 mm
08:31 -3.2 °C -6 °C 1024.3 hPa SE 6.4 km/h 8 km/h 81% 0 mm
08:36 -2.9 °C -5.9 °C 1024.3 hPa ESE 8 km/h 9.7 km/h 80% 0 mm
08:41 -2.8 °C -5.9 °C 1024.3 hPa SE 8 km/h 9.7 km/h 79% 0 mm
08:46 -2.8 °C -5.7 °C 1024.6 hPa SSE 8 km/h 8 km/h 80% 0 mm
08:51 -2.8 °C -5.7 °C 1024.6 hPa SE 6.4 km/h 8 km/h 80% 0 mm
08:56 -2.4 °C -5.3 °C 1024.6 hPa SE 4.8 km/h 9.7 km/h 80% 0 mm
09:01 -2.1 °C -5.2 °C 1024.6 hPa SSE 11.3 km/h 11.3 km/h 79% 0 mm
09:06 -1.7 °C -5.1 °C 1024.6 hPa SSE 6.4 km/h 12.9 km/h 78% 0 mm
09:11 -1.5 °C -5.2 °C 1024.6 hPa SE 9.7 km/h 12.9 km/h 76% 0 mm
09:16 -1.3 °C -4.9 °C 1024.6 hPa SE 8 km/h 17.7 km/h 76% 0 mm
09:21 -1 °C -4.7 °C 1024.6 hPa SE 6.4 km/h 12.9 km/h 76% 0 mm
09:27 -0.7 °C -4.9 °C 1024.3 hPa SE 12.9 km/h 14.5 km/h 73% 0 mm
09:32 -0.4 °C -4.7 °C 1024.6 hPa SSE 9.7 km/h 14.5 km/h 73% 0 mm
09:37 -0.3 °C -4.7 °C 1024.3 hPa SSE 8 km/h 16.1 km/h 72% 0 mm
09:42 -0.1 °C -4.6 °C 1024.3 hPa South 8 km/h 12.9 km/h 72% 0 mm
09:47 0.2 °C -4.4 °C 1024.3 hPa SE 12.9 km/h 12.9 km/h 71% 0 mm
09:52 0.4 °C -4.4 °C 1024.3 hPa SE 11.3 km/h 14.5 km/h 70% 0 mm
09:57 0.6 °C -4.4 °C 1024.3 hPa SSE 12.9 km/h 16.1 km/h 69% 0 mm
10:02 0.9 °C -4.3 °C 1023.9 hPa SSE 9.7 km/h 16.1 km/h 68% 0 mm
10:07 1.3 °C -3.8 °C 1024.3 hPa SE 11.3 km/h 14.5 km/h 69% 0 mm
10:12 1.5 °C -4.2 °C 1024.3 hPa SSE 11.3 km/h 17.7 km/h 66% 0 mm
10:17 1.7 °C -3.9 °C 1023.9 hPa SSE 8 km/h 16.1 km/h 66% 0 mm
10:22 1.9 °C -3.9 °C 1023.9 hPa South 9.7 km/h 14.5 km/h 65% 0 mm
10:27 2.2 °C -4.3 °C 1023.9 hPa SE 11.3 km/h 14.5 km/h 62% 0 mm
10:33 2.6 °C -4 °C 1023.9 hPa SSE 8 km/h 16.1 km/h 62% 0 mm
10:38 2.7 °C -3.9 °C 1023.9 hPa SSW 8 km/h 17.7 km/h 62% 0 mm
10:43 2.9 °C -4.1 °C 1023.6 hPa SSE 11.3 km/h 14.5 km/h 60% 0 mm
10:48 3.2 °C -3.8 °C 1023.6 hPa South 12.9 km/h 17.7 km/h 60% 0 mm
10:53 3.3 °C -3.7 °C 1023.6 hPa South 11.3 km/h 16.1 km/h 60% 0 mm
10:59 3.6 °C -3.7 °C 1023.6 hPa SSE 17.7 km/h 17.7 km/h 59% 0 mm
11:04 3.8 °C -3.9 °C 1023.2 hPa ESE 14.5 km/h 17.7 km/h 57% 0 mm
11:09 4.1 °C -3.4 °C 1023.2 hPa SE 12.9 km/h 20.9 km/h 58% 0 mm
11:14 4.2 °C -4 °C 1023.2 hPa SSE 16.1 km/h 20.9 km/h 55% 0 mm
11:19 4.5 °C -3.5 °C 1023.2 hPa SE 11.3 km/h 16.1 km/h 56% 0 mm
11:24 4.6 °C -3.4 °C 1022.9 hPa South 9.7 km/h 19.3 km/h 56% 0 mm
11:29 4.9 °C -3.1 °C 1022.9 hPa SSW 12.9 km/h 16.1 km/h 56% 0 mm
11:34 5.3 °C -3.5 °C 1022.6 hPa SSW 19.3 km/h 19.3 km/h 53% 0 mm
11:39 5.5 °C -3.6 °C 1022.6 hPa SSW 24.1 km/h 24.1 km/h 52% 0 mm
11:44 5.8 °C -2.6 °C 1022.2 hPa SW 9.7 km/h 17.7 km/h 55% 0 mm
11:45 5.9 °C -2.4 °C 1022.2 hPa SSW 12.9 km/h 17.7 km/h 55% 0 mm
11:50 6.1 °C -3.3 °C 1021.9 hPa SSE 9.7 km/h 24.1 km/h 51% 0 mm
11:55 6.3 °C -2.3 °C 1021.9 hPa SSW 11.3 km/h 24.1 km/h 54% 0 mm
12:00 6.5 °C -3.4 °C 1021.9 hPa WSW 17.7 km/h 17.7 km/h 49% 0 mm
12:05 6.7 °C -2.5 °C 1021.6 hPa SSW 11.3 km/h 24.1 km/h 52% 0 mm
12:10 6.7 °C -3.2 °C 1021.6 hPa SSW 22.5 km/h 22.5 km/h 49% 0 mm
12:15 6.7 °C -3.2 °C 1021.2 hPa South 17.7 km/h 24.1 km/h 49% 0 mm
12:20 6.9 °C -2.5 °C 1020.9 hPa SW 12.9 km/h 20.9 km/h 51% 0 mm
12:25 7.2 °C -2.3 °C 1020.9 hPa South 22.5 km/h 22.5 km/h 51% 0 mm
12:30 7.3 °C -2.7 °C 1020.9 hPa SW 12.9 km/h 22.5 km/h 49% 0 mm
12:35 7.6 °C -2.7 °C 1020.5 hPa SSE 12.9 km/h 24.1 km/h 48% 0 mm
12:40 8.1 °C -2.2 °C 1020.5 hPa SW 24.1 km/h 25.7 km/h 48% 0 mm
12:45 8.4 °C -2.3 °C 1020.2 hPa SW 19.3 km/h 20.9 km/h 47% 0 mm
12:50 8.9 °C -2.1 °C 1019.9 hPa South 9.7 km/h 20.9 km/h 46% 0 mm
12:55 9.2 °C -2.2 °C 1019.5 hPa South 14.5 km/h 25.7 km/h 45% 0 mm
13:00 9.2 °C -2.8 °C 1019.2 hPa SSW 17.7 km/h 30.6 km/h 43% 0 mm
13:06 9.3 °C -2.3 °C 1019.2 hPa SSW 25.7 km/h 35.4 km/h 44% 0 mm
13:11 9.1 °C -2.5 °C 1019.2 hPa SW 16.1 km/h 25.7 km/h 44% 0 mm
13:16 9.1 °C -2.8 °C 1019.2 hPa SW 14.5 km/h 22.5 km/h 43% 0 mm
13:21 9.3 °C -2.7 °C 1019.2 hPa SW 16.1 km/h 27.4 km/h 43% 0 mm
13:26 9.3 °C -2.7 °C 1019.2 hPa SW 24.1 km/h 35.4 km/h 43% 0 mm
13:31 9.2 °C -2.4 °C 1019.2 hPa SW 14.5 km/h 27.4 km/h 44% 0 mm
13:36 9.2 °C -2.4 °C 1018.8 hPa SSW 11.3 km/h 27.4 km/h 44% 0 mm
13:41 9.3 °C -2.7 °C 1018.5 hPa SSW 27.4 km/h 27.4 km/h 43% 0 mm
13:46 9.6 °C -1.8 °C 1018.5 hPa SSW 14.5 km/h 25.7 km/h 45% 0 mm
13:51 9.6 °C -2.7 °C 1018.5 hPa SSW 20.9 km/h 25.7 km/h 42% 0 mm
13:56 9.8 °C -2.8 °C 1018.5 hPa SW 20.9 km/h 24.1 km/h 41% 0 mm
14:01 10 °C -2.3 °C 1018.5 hPa SW 19.3 km/h 27.4 km/h 42% 0 mm
14:06 10.3 °C -1.7 °C 1018.5 hPa SW 29 km/h 29 km/h 43% 0 mm
14:11 10.3 °C -2.3 °C 1018.2 hPa WSW 16.1 km/h 24.1 km/h 41% 0 mm
14:16 10.4 °C -2.6 °C 1017.8 hPa SW 17.7 km/h 33.8 km/h 40% 0 mm
14:21 10.4 °C -2.3 °C 1017.8 hPa SW 19.3 km/h 24.1 km/h 41% 0 mm
14:26 10.4 °C -2.6 °C 1017.8 hPa SW 9.7 km/h 27.4 km/h 40% 0 mm
14:31 10.8 °C -1.9 °C 1017.5 hPa SW 16.1 km/h 25.7 km/h 41% 0 mm
14:36 11.2 °C -1.3 °C 1017.5 hPa SSW 12.9 km/h 20.9 km/h 42% 0 mm
14:41 11.5 °C -1.6 °C 1017.5 hPa SSW 20.9 km/h 29 km/h 40% 0 mm
14:46 11.7 °C -1.1 °C 1017.5 hPa SW 14.5 km/h 20.9 km/h 41% 0 mm
14:48 11.8 °C -1.7 °C 1017.5 hPa SW 33.8 km/h 33.8 km/h 39% 0 mm
14:53 11.6 °C -2.6 °C 1017.5 hPa SSW 20.9 km/h 35.4 km/h 37% 0 mm
14:58 11.7 °C -2.2 °C 1017.5 hPa SW 29 km/h 37 km/h 38% 0 mm
15:03 11.4 °C -2.4 °C 1017.5 hPa SW 32.2 km/h 32.2 km/h 38% 0 mm
15:08 11.6 °C -1.6 °C 1017.5 hPa SW 25.7 km/h 25.7 km/h 40% 0 mm
15:13 11.7 °C -2.8 °C 1017.5 hPa WSW 14.5 km/h 40.2 km/h 36% 0 mm
15:18 11.9 °C -1.9 °C 1017.5 hPa West 14.5 km/h 33.8 km/h 38% 0 mm
15:24 11.9 °C -2.3 °C 1017.5 hPa WSW 24.1 km/h 41.8 km/h 37% 0 mm
15:29 12.1 °C -2.6 °C 1017.5 hPa SW 16.1 km/h 29 km/h 36% 0 mm
15:34 12.1 °C -2.5 °C 1017.5 hPa SW 30.6 km/h 43.5 km/h 36% 0 mm
15:39 12.1 °C -2.5 °C 1017.5 hPa SW 25.7 km/h 45.1 km/h 36% 0 mm
15:44 12.2 °C -2.4 °C 1017.5 hPa SW 25.7 km/h 33.8 km/h 36% 0 mm
15:50 12.2 °C -2.1 °C 1017.5 hPa WSW 17.7 km/h 37 km/h 37% 0 mm
15:55 12.3 °C -1.9 °C 1017.5 hPa WSW 25.7 km/h 29 km/h 37% 0 mm
16:00 12.3 °C -1.9 °C 1017.5 hPa SSW 17.7 km/h 32.2 km/h 37% 0 mm
16:05 12.4 °C -1.8 °C 1017.5 hPa SW 24.1 km/h 27.4 km/h 37% 0 mm
16:10 12.4 °C -1.8 °C 1017.5 hPa SW 29 km/h 41.8 km/h 37% 0 mm
16:20 12.6 °C -1.7 °C 1017.5 hPa WSW 12.9 km/h 32.2 km/h 37% 0 mm
16:25 12.6 °C -2.1 °C 1017.5 hPa WSW 16.1 km/h 24.1 km/h 36% 0 mm
16:30 12.7 °C -2.3 °C 1017.5 hPa West 17.7 km/h 22.5 km/h 35% 0 mm
16:35 12.6 °C -4.1 °C 1017.8 hPa West 32.2 km/h 33.8 km/h 31% 0 mm
16:40 12.5 °C -5.1 °C 1017.8 hPa WNW 17.7 km/h 37 km/h 29% 0 mm
16:45 12.4 °C -5.2 °C 1018.2 hPa West 24.1 km/h 24.1 km/h 29% 0 mm
16:50 12.3 °C -5.2 °C 1018.2 hPa West 14.5 km/h 37 km/h 29% 0 mm
16:55 12.2 °C -4.1 °C 1018.2 hPa West 27.4 km/h 29 km/h 32% 0 mm
17:00 12.1 °C -5 °C 1018.2 hPa West 30.6 km/h 43.5 km/h 30% 0 mm
17:05 11.9 °C -5.1 °C 1018.2 hPa West 14.5 km/h 30.6 km/h 30% 0 mm
17:10 11.8 °C -5.2 °C 1018.2 hPa West 17.7 km/h 30.6 km/h 30% 0 mm
17:15 11.7 °C -4.9 °C 1018.5 hPa WSW 24.1 km/h 30.6 km/h 31% 0 mm
17:20 11.5 °C -4.6 °C 1018.5 hPa West 20.9 km/h 27.4 km/h 32% 0 mm
17:25 11.4 °C -4.3 °C 1018.5 hPa WSW 8 km/h 29 km/h 33% 0 mm
17:30 11.2 °C -4.5 °C 1018.8 hPa WSW 14.5 km/h 29 km/h 33% 0 mm
17:35 11 °C -4.3 °C 1019.2 hPa West 29 km/h 37 km/h 34% 0 mm
17:40 10.8 °C -4 °C 1019.2 hPa West 12.9 km/h 32.2 km/h 35% 0 mm
17:45 10.7 °C -3.8 °C 1019.2 hPa West 9.7 km/h 32.2 km/h 36% 0 mm
17:46 10.7 °C -3.8 °C 1019.2 hPa West 9.7 km/h 32.2 km/h 36% 0 mm
17:51 10.5 °C -3.9 °C 1019.2 hPa WSW 11.3 km/h 38.6 km/h 36% 0 mm
17:56 10.4 °C -4.1 °C 1019.5 hPa WSW 19.3 km/h 37 km/h 36% 0 mm
18:01 10.2 °C -3.9 °C 1019.5 hPa West 12.9 km/h 22.5 km/h 37% 0 mm
18:06 9.9 °C -3.7 °C 1019.9 hPa West 6.4 km/h 17.7 km/h 38% 0 mm
18:11 9.7 °C -3.6 °C 1019.9 hPa West 8 km/h 17.7 km/h 39% 0 mm
18:16 9.5 °C -3.4 °C 1019.9 hPa WSW 6.4 km/h 16.1 km/h 40% 0 mm
18:21 9.3 °C -3.6 °C 1020.2 hPa WNW 8 km/h 12.9 km/h 40% 0 mm
18:26 9.3 °C -3.3 °C 1020.2 hPa West 8 km/h 16.1 km/h 41% 0 mm
18:31 9.1 °C -3.4 °C 1020.2 hPa WNW 4.8 km/h 11.3 km/h 41% 0 mm
18:36 8.9 °C -3.3 °C 1020.5 hPa WNW 6.4 km/h 8 km/h 42% 0 mm
18:41 8.8 °C -3.4 °C 1020.5 hPa WNW 8 km/h 11.3 km/h 42% 0 mm
18:46 8.7 °C -3.4 °C 1020.5 hPa WSW 6.4 km/h 25.7 km/h 42% 0 mm
18:51 8.7 °C -3.2 °C 1020.9 hPa West 8 km/h 17.7 km/h 43% 0 mm
18:56 8.8 °C -3.1 °C 1020.9 hPa WNW 6.4 km/h 20.9 km/h 43% 0 mm
19:01 8.8 °C -3.1 °C 1020.9 hPa West 6.4 km/h 14.5 km/h 43% 0 mm
19:06 8.8 °C -3.1 °C 1021.2 hPa WNW 9.7 km/h 17.7 km/h 43% 0 mm
19:11 8.7 °C -2.9 °C 1021.2 hPa WNW 12.9 km/h 16.1 km/h 44% 0 mm
19:16 8.7 °C -2.9 °C 1021.2 hPa West 9.7 km/h 12.9 km/h 44% 0 mm
19:21 8.5 °C -3.1 °C 1021.2 hPa West 8 km/h 12.9 km/h 44% 0 mm
19:26 8.3 °C -2.6 °C 1021.2 hPa West 9.7 km/h 11.3 km/h 46% 0 mm
19:31 8.4 °C -2.6 °C 1021.6 hPa WSW 8 km/h 9.7 km/h 46% 0 mm
19:36 8.4 °C -2.6 °C 1021.6 hPa West 6.4 km/h 8 km/h 46% 0 mm
19:41 8.4 °C -2.6 °C 1021.6 hPa WSW 9.7 km/h 12.9 km/h 46% 0 mm
19:46 8.4 °C -2.5 °C 1021.6 hPa West 6.4 km/h 11.3 km/h 46% 0 mm
19:48 8.4 °C -2.6 °C 1021.6 hPa WSW 4.8 km/h 11.3 km/h 46% 0 mm
19:53 8.3 °C -2.4 °C 1021.6 hPa WSW 8 km/h 9.7 km/h 47% 0 mm
19:58 8.1 °C -2.2 °C 1021.6 hPa West 3.2 km/h 6.4 km/h 48% 0 mm
20:03 8 °C -2.3 °C 1021.9 hPa WNW 8 km/h 12.9 km/h 48% 0 mm
20:08 8.1 °C -2.2 °C 1021.9 hPa WNW 14.5 km/h 19.3 km/h 48% 0 mm
20:13 8.4 °C -2.3 °C 1021.9 hPa West 9.7 km/h 20.9 km/h 47% 0 mm
20:18 8.4 °C -2.6 °C 1021.9 hPa WSW 8 km/h 16.1 km/h 46% 0 mm
20:23 8.2 °C -2.4 °C 1021.9 hPa WNW 9.7 km/h 16.1 km/h 47% 0 mm
20:28 8.2 °C -2.4 °C 1022.2 hPa West 4.8 km/h 17.7 km/h 47% 0 mm
20:33 8.2 °C -2.2 °C 1022.2 hPa West 6.4 km/h 19.3 km/h 48% 0 mm
20:38 8 °C -2.3 °C 1022.2 hPa WSW 12.9 km/h 14.5 km/h 48% 0 mm
20:43 7.9 °C -2.4 °C 1022.2 hPa West 12.9 km/h 16.1 km/h 48% 0 mm
20:48 8 °C -2.1 °C 1022.2 hPa West 9.7 km/h 19.3 km/h 49% 0 mm
20:53 7.9 °C -2.1 °C 1022.6 hPa West 12.9 km/h 20.9 km/h 49% 0 mm
20:58 7.8 °C -2.3 °C 1022.6 hPa West 9.7 km/h 16.1 km/h 49% 0 mm
21:03 7.6 °C -2.2 °C 1022.6 hPa West 8 km/h 14.5 km/h 50% 0 mm
21:08 7.6 °C -1.9 °C 1022.9 hPa WNW 11.3 km/h 16.1 km/h 51% 0 mm
21:13 7.4 °C -2 °C 1022.9 hPa WNW 4.8 km/h 12.9 km/h 51% 0 mm
21:18 7.4 °C -1.8 °C 1022.9 hPa WNW 8 km/h 14.5 km/h 52% 0 mm
21:23 7.2 °C -1.9 °C 1022.9 hPa West 9.7 km/h 12.9 km/h 52% 0 mm
21:29 7.1 °C -1.9 °C 1023.2 hPa West 9.7 km/h 12.9 km/h 53% 0 mm
21:34 7 °C -1.9 °C 1023.2 hPa West 6.4 km/h 9.7 km/h 53% 0 mm
21:39 6.9 °C -1.8 °C 1023.2 hPa West 6.4 km/h 9.7 km/h 54% 0 mm
21:44 6.8 °C -1.9 °C 1023.2 hPa West 8 km/h 9.7 km/h 54% 0 mm
21:49 6.6 °C -1.8 °C 1023.2 hPa West 9.7 km/h 9.7 km/h 55% 0 mm
21:54 6.5 °C -1.9 °C 1023.6 hPa West 4.8 km/h 9.7 km/h 55% 0 mm
21:59 6.4 °C -1.7 °C 1023.6 hPa WNW 8 km/h 9.7 km/h 56% 0 mm
22:04 6.3 °C -1.8 °C 1023.6 hPa West 6.4 km/h 12.9 km/h 56% 0 mm
22:09 6.2 °C -1.7 °C 1023.6 hPa WNW 4.8 km/h 12.9 km/h 57% 0 mm
22:14 6.1 °C -1.8 °C 1023.9 hPa West 6.4 km/h 12.9 km/h 57% 0 mm
22:19 6 °C -1.6 °C 1023.9 hPa WNW 16.1 km/h 17.7 km/h 58% 0 mm
22:24 6 °C -1.4 °C 1023.9 hPa NW 6.4 km/h 16.1 km/h 59% 0 mm
22:29 5.7 °C -1.3 °C 1023.9 hPa NW 9.7 km/h 25.7 km/h 61% 0 mm
22:34 5.3 °C -1.1 °C 1024.3 hPa NW 8 km/h 14.5 km/h 63% 0 mm
22:39 4.9 °C -1.3 °C 1024.3 hPa NW 12.9 km/h 12.9 km/h 64% 0 mm
22:44 4.8 °C -1.2 °C 1024.6 hPa NW 9.7 km/h 11.3 km/h 65% 0 mm
22:49 4.6 °C -1.4 °C 1024.6 hPa NW 9.7 km/h 14.5 km/h 65% 0 mm
22:54 4.7 °C -1.5 °C 1024.6 hPa NW 6.4 km/h 19.3 km/h 64% 0 mm
22:59 4.7 °C -1.8 °C 1024.6 hPa WNW 11.3 km/h 19.3 km/h 63% 0 mm
23:04 4.5 °C -1.9 °C 1024.9 hPa WNW 8 km/h 16.1 km/h 63% 0 mm
23:09 4.3 °C -1.9 °C 1024.9 hPa NW 9.7 km/h 12.9 km/h 64% 0 mm
23:14 4.2 °C -2 °C 1024.9 hPa WNW 19.3 km/h 19.3 km/h 64% 0 mm
23:19 4.2 °C -2 °C 1024.9 hPa NW 6.4 km/h 14.5 km/h 64% 0 mm
23:25 4 °C -2.2 °C 1024.9 hPa NNW 6.4 km/h 11.3 km/h 64% 0 mm
23:30 3.8 °C -2.3 °C 1024.9 hPa NW 8 km/h 12.9 km/h 64% 0 mm
23:35 3.6 °C -2.2 °C 1024.9 hPa NW 9.7 km/h 11.3 km/h 66% 0 mm
23:40 3.3 °C -2.2 °C 1024.9 hPa NW 8 km/h 9.7 km/h 67% 0 mm
23:45 3.2 °C -2.3 °C 1024.9 hPa NW 4.8 km/h 11.3 km/h 67% 0 mm
23:50 3.1 °C -2.3 °C 1025.3 hPa NW 6.4 km/h 9.7 km/h 68% 0 mm
23:55 2.9 °C -2.4 °C 1025.3 hPa NW 4.8 km/h 6.4 km/h 68% 0 mm
Compliments of Weather Underground